www.pogodaiklimat.ru

Погода и климат >> Архив погоды >> Россия >> Крым >> Белогорск


ПОГОДА в Белогорске

  • Прогноз погоды в Белогорске
  • Монитор погоды в Белогорске
  • Климат города

АРХИВ ПОГОДЫ в Белогорске

Время (UTC), дата Ветер
(напр.,м/с)
 
Видим.   Явления Облачность Т
(С)
Тd
(С)
f
(%)
Тe
(С)
Тes
(С)
Комфортность P
(гПа)
Po
(гПа)
Тmin
(С)
Tmax
(С)
R
(мм)
R24
(мм)
S
(см)
00 14.06 штиль 0 20 км ясно +12.6 +9.2 80 +12 +12 1008.0 983.8
03 14.06 штиль 0 20 км ясно +12.2 +8.4 78 +12 +13 1008.3 984.0 +10.9
06 14.06 СВ 2 20 км ясно +25.5 +9.3 36 +26 +35 жарко 1006.3 983.2 +10.9
09 14.06 СВ 4 20 км ясно +31.3 +6.9 22 +30 +43 жарко 1005.6 982.9
12 14.06 СВ 4 20 км ясно +32.6 +7.2 21 +31 +41 жарко 1004.9 982.3
15 14.06 В 6-10
{11}
20 км ясно +29.7 +9.2 28 +29 +31 жарко 1004.5 981.7
18 14.06 В 2
{10}
20 км ясно +25.2 +10.5 40 +26 +26 жарко 1005.6 982.5 +32.8
21 14.06 Ю 1 20 км ясно +19.7 +12.6 64 +22 +22 комфорт 1006.8 983.2
00 15.06 Ю 1 20 км ясно +16.5 +12.5 77 +17 +17 1006.3 982.5
03 15.06 штиль 0 20 км ясно +16.3 +12.5 78 +16 +17 1005.7 981.9 +14.8
06 15.06 СЗ 1 20 км 9/0
[Ac As Ci fib]
+27.3 +13.2 42 +29 +35 жарко 1004.4 981.5 +14.8
09 15.06 Ю 4 20 км 9/0
[Ac As Ci fib]
+31.3 +13.1 33 +32 +39 жарко 1003.9 981.3
12 15.06 Ю 3 20 км 9/5 600 м
[Cb cap Ac As Ci fib]
+31.7 +12.1 30 +32 +36 жарко 1003.9 981.3
15 15.06 СЗ 3 20 км 9/8 600 м
[Sc Ac As Ci fib]
+29.8 +13.9 38 +32 +32 душно 1004.8 982.0
18 15.06 З 2 20 км слабый ливневой дождь 10/8 300 м
[Frnb Ac As]
+24.6 +17.3 64 +29 +29 душно 1005.9 982.8 +33.6 0.1
21 15.06 штиль 0 20 км слабый ливневой дождь 9/9 300 м
[Frnb]
+21.8 +18.3 81 +27 +27 душно 1006.9 983.5
00 16.06 СВ 1 20 км {ливн. осадки} 10/10 300 м
[Cb cap]
+20.0 +18.6 92 +24 +24 комфорт 1007.6 984.1
03 16.06 СВ 1 20 км 9/8 600 м
[Cb cap Ci fib]
+19.6 +18.0 90 +23 +23 комфорт 1007.8 984.2 +19.3 0.5
06 16.06 СВ 1 20 км 10/10 600 м
[Cb cap]
+22.7 +17.7 73 +28 +28 душно 1008.2 984.9 +19.3 0.4
09 16.06 Ю 4 20 км 10/10 600 м
[Sc]
+26.7 +16.9 55 +30 +30 душно 1007.9 984.9
12 16.06 СВ 4 20 км 8/3 600 м
[Cu Sc Ac trans Ci fib]
+27.9 +14.7 44 +30 +35 жарко 1007.3 984.4
15 16.06 В 2 20 км {гроза} 9/3 600 м
[Sc Ci fib]
+28.1 +14.1 42 +30 +32 жарко 1006.8 983.9
18 16.06 ЮВ 3 20 км {гроза} 9/0
[Ci fib]
+22.2 +17.0 72 +27 +27 душно 1008.1 984.7 +29.4
21 16.06 ЮВ 3 20 км 8/0
[Ci sp]
+20.8 +14.7 68 +24 +24 комфорт 1008.7 985.2
00 17.06 штиль 0 20 км 1/0
[Ci fib]
+17.0 +14.2 84 +17 +17 1009.0 985.2
03 17.06 штиль 0 20 км 4/0
[Ci fib]
+16.9 +14.1 84 +17 +18 1009.0 985.1 +15.5
06 17.06 В 3 20 км 9/4 600 м
[Cb cap Ac trans Ci fib]
+24.5 +14.2 53 +27 +30 жарко 1008.2 985.0 +15.5
09 17.06 СВ 5 20 км 10/8 600 м
[Cb cap Ac lent]
+24.6 +16.1 59 +28 +28 душно 1008.4 985.2
12 17.06 СВ 5
{10}
20 км 9/9 600 м
[Cb cap Ac lent]
+25.3 +16.9 60 +29 +30 душно 1007.9 984.8
15 17.06 СВ 3 20 км сильный ливневой дождь 9/9 600 м
[Cb cap]
+22.4 +18.4 78 +28 +28 душно 1008.2 984.8 0.0
18 17.06 СВ 3 20 км {ливн. осадки} 8/8 600 м
[Sc]
+20.4 +16.3 77 +24 +24 комфорт 1008.7 985.2 +26.4 0.0
21 17.06 штиль 0 20 км 10/10 600 м
[Sc]
+18.2 +16.2 88 +19 +19 1008.9 985.2
00 18.06 штиль 0 20 км 9/9 600 м
[Sc]
+18.7 +14.4 76 +19 +19 1008.7 985.0
03 18.06 С 1 20 км 9/9 600 м
[Sc Ci fib]
+16.9 +14.7 87 +18 +18 1008.0 984.2 +15.9
06 18.06 СВ 4 20 км 9/0
[Ac As]
+24.7 +14.3 52 +27 +29 жарко 1007.6 984.4 +15.9
09 18.06 В 5-11
{11}
20 км 9/1 600 м
[Cu med, cong Ac As Ci fib]
+26.2 +10.5 37 +27 +32 жарко 1007.6 984.5
12 18.06 С 6-11
{14}
20 км 6/6 600 м
[Cu hum Ac As Ci fib]
+26.6 +10.4 36 +27 +30 жарко 1008.2 985.1
15 18.06 СВ 5-10
{13}
20 км {ливн. осадки} 3/0
[Ac lent Cc]
+25.9 +10.4 38 +27 +28 жарко 1008.6 985.4 0.0
18 18.06 ЮВ 1
{12}
20 км 3/0
[Ac lent Cc]
+22.3 +10.5 47 +24 +24 комфорт 1009.6 986.1 +28.5 0.0
21 18.06 ЮЗ 2 20 км 3/0
[Ci fib]
+16.9 +11.2 69 +17 +17 1010.9 987.0
00 19.06 штиль 0 20 км ясно +14.5 +11.1 80 +14 +14 1011.3 987.2
03 19.06 штиль 0 20 км ясно +14.9 +11.1 78 +15 +15 1012.1 988.0 +13.3
06 19.06 СВ 1 20 км ясно +24.6 +15.1 55 +27 +38 жарко 1012.2 988.9 +13.3
09 19.06 СВ 6-11
{11}
20 км 1/0 600 м
[Ci fib]
+29.4 +6.9 24 +28 +35 жарко 1011.6 988.6
12 19.06 СВ 7-12
{13}
20 км ясно +30.2 +5.7 21 +29 +33 жарко 1012.0 989.1
15 19.06 СВ 5-10
{13}
20 км ясно +28.5 +1.8 18 +26 +28 жарко 1012.6 989.5
18 19.06 СВ 2
{10}
20 км ясно +23.3 +8.5 39 +25 +25 комфорт 1014.0 990.5 +30.5
21 19.06 штиль 0 20 км ясно +16.3 +8.3 59 +16 +16 1015.4 991.3
00 20.06 штиль 0 20 км ясно +13.0 +7.0 67 +13 +13 1016.4 992.0
03 20.06 штиль 0 ясно 67 993.3
06 20.06 СВ 1 20 км ясно +27.5 +9.8 33 +28 +39 жарко 1015.7 992.5 +11.9
09 20.06 С 3 ясно 25 993.3
12 20.06 В 4
{11}
ясно 24 992.0
15 20.06 СВ 4 ясно 23 992.0
18 20.06 Ю 2 ясно 33 992.0
21 20.06 В 2 ясно 49 993.3

 

Местоположение метеостанции Белогорск (Крым, Россия): широта 45.05 долгота 34.60 высота над уровнем моря 205 м.

В архиве по умолчанию представлена погода в Белогорске за последнюю неделю. Архивные данные за месяц целиком и за предыдущие месяцы, начиная с января 2011 года, Вы можете получить, выбрав интересующий диапазон дат из раскрывающегося списка и нажав кнопку "Ввод!".


*Определитесь, кто Вы:
робот инопланетянин человек

Внимание! Время в таблицах - всемирное. Для получения местного времени необходимо прибавить поправку, которая в Белогорске равна 3 ч.

Смотрите также архив погоды в соседних городах и на ближайших метеорологических станциях:

Погода в Ангарском Перевале (Крым, Россия) (39 км)
Погода в Симферополе город (Крым, Россия) (39 км)
Погода в Алуште (Крым, Россия) (45 км)
Погода в Нижнегорском (Крым, Россия) (46 км)
Погода в Симферополе (Крым, Россия) (50 км)
Погода в Карадаге (Крым, Россия) (50 км)
Погода в Стрелковом (Херсонская область, Украина) (56 км)
Погода в Почтовом (Крым, Россия) (57 км)
Погода в Феодосии (Крым, Россия) (61 км)
Погода в Владиславовке (Крым, Россия) (63 км)

Пояснения к столбцам:

Ветер - указаны скорость ветра в м/с - средняя за 10 мин, порывы в срок и между сроками (в фигурных скобках) и направление, откуда дует ветер: С - северный, СВ - северо-восточный, В - восточный, ЮВ - юго-восточный, Ю - южный, ЮЗ - юго-западный, З - западный, СЗ - северо-западный.
Видимость - горизонтальная дальность видимости в метрах или километрах. При видимости от 1 до 10 км при отсутствии осадков обычно наблюдается дымка, при ухудшении видимости до 1 км и менее - туман. В сухую погоду видимость может ухудшаться дымом, пылью или мглою.
Явления - указаны атмосферные явления, наблюдавшиеся в срок или в последний час перед сроком; фигурными скобками обозначены явления, наблюдавшиеся между сроками (за 1-3 часа до срока); квадратными скобками обозначены град или гололедные отложения с указанием их диаметра в мм.
Облачность - указаны через наклонную черту общая и нижняя облачность в баллах и высота нижней границы облаков в метрах; квадратными скобками обозначены формы облаков: Ci - перистые, Cs - перисто-слоистые, Cc - перисто-кучевые, Ac - высококучевые, As - высокослоистые, Sc - слоисто-кучевые, Ns - слоисто-дождевые, Cu - кучевые, Cb - кучево-дождевые. Подробнее классификацию облаков см. в Атласе облаков (PDF).
T - Температура воздуха - температура, измеренная на высоте 2 м над землей.
Td - Температура точки росы - температура, при понижении до которой содержащийся в воздухе водяной пар достигнет насыщения.
f - Относительная влажность воздуха - влажноcть воздуха, измеренная на высоте 2 м над землей.
Te - Эффективная температура - температура, которую ощущает одетый по сезону человек в тени. Характеристика душности погоды. При расчете учитывается влияние влажности воздуха и скорости ветра на теплоощущения человека.
Tes - Эффективная температура на солнце - температура, которую ощущает человек, с поправкой на солнечный нагрев. Характеристика знойности погоды. Зависит от высоты солнца над горизонтом, облачности и скорости ветра. Ночью, в пасмурную погоду, а также при ветре 12 м/с и более поправка равна нулю.
P - Атмосферное давление - приведенное к уровню моря атмосферное давление.
Po - Атмосферное давление - измеренное на уровне метеостанции атмосферное давление.
Tmin - Минимальная температура - минимум температуры воздуха на высоте 2 м над землей.
Tmax - Максимальная температура - максимум температуры воздуха на высоте 2 м над землей.
R - Количество осадков - Количество выпавших осадков за период времени, мм. При наведении курсора мыши на число - период времени, за который выпало указанное количество осадков.
R24 - Количество осадков - Количество выпавших осадков за 24 часа, мм.
S - Снежный покров - Высота снежного покрова, см. При наведении курсора мыши на число - состояние снежного покрова и степень покрытия местности в баллах.